Regional Weather Roundup
Issued by NWS Bismarck, ND

Home | Current Version | Previous Version | Text Only | Print | Product List | Glossary On
Versions: 1 2 3 4 5 6 7 8 9 10 11 12 13 14 15 16 17 18 19 20 21 22 23 24 25 26 27 28 29 30 31 32 33 34 35 36 37 38 39 40 41 42 43 44 45 46 47 48 49 50
000
ASUS43 KBIS 250859
RWRBIS

NWR BROADCAST TEXT
NATIONAL WEATHER SERVICE BISMARCK ND
400 AM CDT FRI JUL 25 2014

NOTE: "FAIR" INDICATES FEW OR NO CLOUDS BELOW 12,000 FEET WITH NO
SIGNIFICANT WEATHER AND/OR OBSTRUCTIONS TO VISIBILITY.


CITY           SKY/WX    TMP DP  RH WIND       PRES   REMARKS
WILLISTON      CLEAR     55  51  86 CALM      29.84R
MINOT          MOCLDY    67  65  93 SW9       29.73R
MINOT AFB      NOT AVBL
BISMARCK       CLEAR     67  63  87 NE7       29.76R
DICKINSON      NOT AVBL
GARRISON         N/A     67  66  97 SE6       29.77R
HETTINGER ARPT CLEAR     62  53  72 NW20G30   29.84R
JAMESTOWN      NOT AVBL
CARRINGTON     CLOUDY    64  64 100 SE9       29.77F
CROSBY           N/A     54  54 100 W8        29.82R
HARVEY         FAIR      64  64 100 SE5       29.77R
HAZEN          CLOUDY    66  66 100 NW6       29.78R
LINTON         FAIR      64  64 100 NW7       29.74R
MANDAN         FAIR      64  63  94 NE7       29.77R
RUGBY          FAIR      66  66 100 S14       29.67F
TIOGA          FAIR      55  55 100 W7        29.85R
WATFORD CITY   FAIR      54  54 100 SW5       29.84R
$$

CITY           SKY/WX    TMP DP  RH WIND       PRES   REMARKS
GRAND FORKS    MOCLDY    68  62  81 SE16      29.70F
GRAND FORKS AF NOT AVBL
DEVILS LAKE    CLOUDY    66  61  82 SE10      29.75R
FARGO          CLOUDY    68  61  78 SE7       29.74S
CAVALIER       FAIR      66  63  88 S12       29.75R
GRAFTON        FAIR      66  63  88 S9        29.73R
GWINNER        MOSUNNY   64  64 100 NE8       29.73R
LANGDON        FAIR      63  63 100 S6        29.76F
$$

CITY           SKY/WX    TMP DP  RH WIND       PRES   REMARKS
ABERDEEN       CLOUDY    66  65  96 NE13      29.67F
MOBRIDGE       PTCLDY    67  65  93 NW15      29.69R
BUFFALO          N/A     60  48  64 NW10      29.84R
RAPID CITY     CLEAR     66  51  58 NW22G31   29.88R
GLASGOW        CLEAR     53  37  54 W8        29.88F
SIDNEY         CLEAR     55  48  76 CALM      29.88R
WOLF POINT     CLEAR     53  50  89 SW3       29.89R
GLENDIVE       CLEAR     52  48  87 W9        29.92R
MILES CITY     CLEAR     55  50  83 SW6       29.94S
BAKER          CLEAR     54  47  77 W7        29.93R
$$

CITY           SKY/WX    TMP DP  RH WIND       PRES   REMARKS
BILLINGS       CLEAR     63  33  32 N7        30.00F
GREAT FALLS    CLEAR     56  35  45 SW18      29.97F
$$




USA.gov is the U.S. government's official web portal to all federal, state and local government web resources and services.